Starlink 4503

operational
NORAD ID: 53528 Int'l Des: 2022-101 Owner: SPXS Country: US Constellation: starlink
LEOCIRCULAR

Über Starlink 4503

Beschreibung wird geladen...

Live-Position

3D-Globus wird geladen...

Nächste Überflüge

Höhenverlauf

Altitude vs Time

uPlot chart will show altitude changes over time

Zweizeiliger Elementsatz

1 53528U 22101B 25257.38223358 -.00000037 00000-0 15795-4 0 9996
2 53528 53.2166 145.5966 0001406 86.5640 273.5513 15.08843545169548
Epoch: 14. Sept. 2025 • Age: 23 hours

Aktueller Status

Höhe 543.8 km
Geschwindigkeit 7.60 km/s
Subsatellitenpunkt 46.32°N, 82.27°E
Startdatum 19. Aug. 2022
Alter 3 years
Typ internet

Technische Details

Klassifizierung Payload
Masse 300.00 kg
Trockenmasse 290.00 kg
Gesamtmasse 300.00 kg
Länge 0.20 m
Durchmesser 2.80 m
Spannweite 9.00 m
Form Box + pan
Hersteller SPXS
Bus-Typ Starlink
Phasenstatus In Orbit
Besitzer/Staat SPXS/US

Große Konstellationen

Loading constellations...